FW3268 Weather Reports


Display with metric or nautical units.
time (UTC)temp
F
wind
direction
speed
MPH
gust
MPH
rain 1hr
in
rain 24hr
in
rain mn
in
humidity
%
barometer
mb
20260504043001 53 212 7.0 11.0 0.00 0.07 0.00 71 1009.1
20260504041501 52 186 4.0 7.0 0.00 0.07 0.00 75 1009.2
20260504040006 52 177 5.0 7.0 0.00 0.07 0.00 75 1009.4
20260504034501 52 172 6.0 9.0 0.00 0.07 0.07 75 1009.5
20260504033002 53 184 6.0 9.0 0.00 0.07 0.07 74 1009.6
20260504031501 53 184 6.0 9.0 0.00 0.07 0.07 74 1009.6
20260504030005 53 177 4.0 7.0 0.00 0.07 0.07 75 1009.7
20260504024504 53 195 4.0 6.0 0.00 0.07 0.07 75 1009.8
20260504021502 53 175 3.0 6.0 0.00 0.07 0.07 75 1009.9
20260504020005 54 167 4.0 5.0 0.00 0.07 0.07 73 1009.9
20260504014503 54 160 4.0 6.0 0.00 0.07 0.07 72 1009.8
20260504013002 55 176 5.0 9.0 0.00 0.07 0.07 71 1009.8
20260504011501 56 178 6.0 9.0 0.00 0.07 0.07 69 1009.8
20260504004501 56 213 6.0 9.0 0.00 0.07 0.07 67 1010.0
20260504003003 56 199 6.0 10.0 0.00 0.07 0.07 66 1010.0
20260504001502 56 219 7.0 12.0 0.00 0.07 0.07 66 1010.1
20260504000005 56 221 9.0 14.0 0.00 0.07 0.07 69 1010.2
20260503234502 57 234 8.0 12.0 0.00 0.07 0.07 67 1010.3
20260503233001 57 225 11.0 18.0 0.00 0.07 0.07 65 1010.5
20260503231501 57 231 10.0 15.0 0.00 0.07 0.07 68 1010.5
20260503230007 58 236 12.0 17.0 0.00 0.07 0.07 65 1010.6
20260503224501 59 240 13.0 18.0 0.00 0.07 0.07 63 1010.7
20260503223001 59 222 11.0 18.0 0.00 0.07 0.07 63 1010.8
20260503221501 58 217 12.0 19.0 0.00 0.07 0.07 64 1010.7
20260503220005 58 221 9.0 15.0 0.01 0.07 0.07 63 1010.9
20260503213000 58 226 12.0 16.0 0.01 0.07 0.07 62 1011.2
20260503210005 57 236 9.0 14.0 0.00 0.06 0.06 63 1011.8
20260503204502 54 143 10.0 14.0 0.00 0.06 0.06 79 1012.0
20260503203002 54 97 8.0 11.0 0.00 0.06 0.06 76 1012.4
20260503200004 51 119 8.0 10.0 0.02 0.06 0.06 77 1013.2
20260503194501 50 97 3.0 6.0 0.04 0.06 0.06 79 1013.8
20260503193000 49 77 1.0 4.0 0.06 0.06 0.06 82 1014.4
20260503191501 49 82 0.0 2.0 0.05 0.05 0.05 84 1014.5
20260503190003 49 271 0.0 2.0 0.04 0.04 0.04 81 1015.0
20260503184501 51 285 5.0 10.0 0.02 0.02 0.02 76 1015.5
20260503183001 51 281 12.0 19.0 0.00 0.00 0.00 74 1015.4
20260503180004 57 253 16.0 26.0 0.00 0.00 0.00 55 1015.0
20260503174502 58 242 17.0 22.0 0.00 0.00 0.00 53 1015.2
20260503173000 58 268 16.0 26.0 0.00 0.00 0.00 54 1015.4
20260503171502 58 257 16.0 25.0 0.00 0.00 0.00 54 1015.7
20260503081500 38 236 2.0 3.0 0.00 0.00 0.00 81 1016.7
20260503071459 38 233 3.0 4.0 0.00 0.00 0.00 79 1016.8
20260503054502 39 249 3.0 4.0 0.00 0.00 0.00 77 1017.5
20260503053000 39 240 2.0 3.0 0.00 0.00 0.00 78 1017.6
20260503051459 39 237 3.0 4.0 0.00 0.00 0.00 78 1017.6
20260503050004 39 242 2.0 4.0 0.00 0.00 0.00 78 1017.7
20260503044502 39 242 2.0 3.0 0.00 0.00 0.00 80 1017.7